owner,sensor,date,latitude,longitude,air_temperature,qcFlag 
COMPS,ioos:station:USF.COMPS:EGK:1,2013-02-04T16:00:00Z,27.6010,-82.7510,15.42,1111122 
COMPS,ioos:station:USF.COMPS:EGK:1,2013-02-04T16:06:00Z,27.6010,-82.7510,15.41,1111122 
COMPS,ioos:station:USF.COMPS:EGK:1,2013-02-04T16:12:00Z,27.6010,-82.7510,15.38,1111122 
COMPS,ioos:station:USF.COMPS:EGK:1,2013-02-04T16:18:00Z,27.6010,-82.7510,15.43,1111122 
COMPS,ioos:station:USF.COMPS:EGK:1,2013-02-04T16:24:00Z,27.6010,-82.7510,15.6,1111122 
COMPS,ioos:station:USF.COMPS:EGK:1,2013-02-04T16:30:00Z,27.6010,-82.7510,15.77,1111122 
COMPS,ioos:station:USF.COMPS:EGK:1,2013-02-04T16:36:00Z,27.6010,-82.7510,15.59,1111122 
COMPS,ioos:station:USF.COMPS:EGK:1,2013-02-04T16:42:00Z,27.6010,-82.7510,15.72,1111122 
COMPS,ioos:station:USF.COMPS:EGK:1,2013-02-04T16:48:00Z,27.6010,-82.7510,15.83,1111122 
COMPS,ioos:station:USF.COMPS:EGK:1,2013-02-04T16:54:00Z,27.6010,-82.7510,15.94,1111122 
COMPS,ioos:station:USF.COMPS:EGK:1,2013-02-04T17:00:00Z,27.6010,-82.7510,15.9,1111122 
COMPS,ioos:station:USF.COMPS:EGK:1,2013-02-04T17:06:00Z,27.6010,-82.7510,15.81,1111122 
COMPS,ioos:station:USF.COMPS:EGK:1,2013-02-04T17:12:00Z,27.6010,-82.7510,15.9,1111122 
COMPS,ioos:station:USF.COMPS:EGK:1,2013-02-04T17:18:00Z,27.6010,-82.7510,15.94,1111122 
COMPS,ioos:station:USF.COMPS:EGK:1,2013-02-04T17:24:00Z,27.6010,-82.7510,16.11,1111122 
COMPS,ioos:station:USF.COMPS:EGK:1,2013-02-04T17:30:00Z,27.6010,-82.7510,16.24,1111122 
COMPS,ioos:station:USF.COMPS:EGK:1,2013-02-04T17:36:00Z,27.6010,-82.7510,16.2,1111122 
COMPS,ioos:station:USF.COMPS:EGK:1,2013-02-04T17:42:00Z,27.6010,-82.7510,16.2,1111122 
COMPS,ioos:station:USF.COMPS:EGK:1,2013-02-04T17:48:00Z,27.6010,-82.7510,16.36,1111122 
COMPS,ioos:station:USF.COMPS:EGK:1,2013-02-04T17:54:00Z,27.6010,-82.7510,16.33,1111122 
COMPS,ioos:station:USF.COMPS:EGK:1,2013-02-04T18:00:00Z,27.6010,-82.7510,16.3,1111122 
COMPS,ioos:station:USF.COMPS:EGK:1,2013-02-04T18:06:00Z,27.6010,-82.7510,16.54,1111122 
COMPS,ioos:station:USF.COMPS:EGK:1,2013-02-04T18:12:00Z,27.6010,-82.7510,16.69,1111122 
COMPS,ioos:station:USF.COMPS:EGK:1,2013-02-04T18:18:00Z,27.6010,-82.7510,17.09,1111122 
COMPS,ioos:station:USF.COMPS:EGK:1,2013-02-04T18:24:00Z,27.6010,-82.7510,17.62,1111122 
COMPS,ioos:station:USF.COMPS:EGK:1,2013-02-04T18:30:00Z,27.6010,-82.7510,17.32,1111122 
COMPS,ioos:station:USF.COMPS:EGK:1,2013-02-04T18:36:00Z,27.6010,-82.7510,17.48,1111122 
COMPS,ioos:station:USF.COMPS:EGK:1,2013-02-04T18:42:00Z,27.6010,-82.7510,17.58,1111122 
COMPS,ioos:station:USF.COMPS:EGK:1,2013-02-04T18:48:00Z,27.6010,-82.7510,17.36,1111122 
COMPS,ioos:station:USF.COMPS:EGK:1,2013-02-04T18:54:00Z,27.6010,-82.7510,17.34,1111122 
COMPS,ioos:station:USF.COMPS:EGK:1,2013-02-04T19:00:00Z,27.6010,-82.7510,17.3,1111122 
COMPS,ioos:station:USF.COMPS:EGK:1,2013-02-04T19:06:00Z,27.6010,-82.7510,17.75,1111122 
COMPS,ioos:station:USF.COMPS:EGK:1,2013-02-04T19:12:00Z,27.6010,-82.7510,17.75,1111122 
COMPS,ioos:station:USF.COMPS:EGK:1,2013-02-04T19:18:00Z,27.6010,-82.7510,17.32,1111122 
COMPS,ioos:station:USF.COMPS:EGK:1,2013-02-04T19:24:00Z,27.6010,-82.7510,17.81,1111122 
COMPS,ioos:station:USF.COMPS:EGK:1,2013-02-04T19:30:00Z,27.6010,-82.7510,17.57,1111122 
COMPS,ioos:station:USF.COMPS:EGK:1,2013-02-04T19:36:00Z,27.6010,-82.7510,17.89,1111122 
COMPS,ioos:station:USF.COMPS:EGK:1,2013-02-04T19:42:00Z,27.6010,-82.7510,17.88,1111122 
COMPS,ioos:station:USF.COMPS:EGK:1,2013-02-04T19:48:00Z,27.6010,-82.7510,18.03,1111122 
COMPS,ioos:station:USF.COMPS:EGK:1,2013-02-04T19:54:00Z,27.6010,-82.7510,18.13,1111122 
COMPS,ioos:station:USF.COMPS:EGK:1,2013-02-04T20:00:00Z,27.6010,-82.7510,18.1,1111122 
COMPS,ioos:station:USF.COMPS:EGK:1,2013-02-04T20:06:00Z,27.6010,-82.7510,18.16,1111122 
COMPS,ioos:station:USF.COMPS:EGK:1,2013-02-04T20:12:00Z,27.6010,-82.7510,17.96,1111122 
COMPS,ioos:station:USF.COMPS:EGK:1,2013-02-04T20:18:00Z,27.6010,-82.7510,18.18,1111122 
COMPS,ioos:station:USF.COMPS:EGK:1,2013-02-04T20:24:00Z,27.6010,-82.7510,18.25,1111122 
COMPS,ioos:station:USF.COMPS:EGK:1,2013-02-04T20:30:00Z,27.6010,-82.7510,18.27,1111122 
COMPS,ioos:station:USF.COMPS:EGK:1,2013-02-04T20:36:00Z,27.6010,-82.7510,17.72,1111122 
COMPS,ioos:station:USF.COMPS:EGK:1,2013-02-04T20:42:00Z,27.6010,-82.7510,17.51,1111122 
COMPS,ioos:station:USF.COMPS:EGK:1,2013-02-04T20:48:00Z,27.6010,-82.7510,17.77,1111122 
COMPS,ioos:station:USF.COMPS:EGK:1,2013-02-04T20:54:00Z,27.6010,-82.7510,17.97,1111122 
COMPS,ioos:station:USF.COMPS:EGK:1,2013-02-04T22:00:00Z,27.6010,-82.7510,17.9,1111122 
COMPS,ioos:station:USF.COMPS:EGK:1,2013-02-04T22:06:00Z,27.6010,-82.7510,17.57,1111122 
COMPS,ioos:station:USF.COMPS:EGK:1,2013-02-04T22:12:00Z,27.6010,-82.7510,17.28,1111122 
COMPS,ioos:station:USF.COMPS:EGK:1,2013-02-04T22:18:00Z,27.6010,-82.7510,17.38,1111122 
COMPS,ioos:station:USF.COMPS:EGK:1,2013-02-04T22:24:00Z,27.6010,-82.7510,17.59,1111122 
COMPS,ioos:station:USF.COMPS:EGK:1,2013-02-04T22:30:00Z,27.6010,-82.7510,17.61,1111122 
COMPS,ioos:station:USF.COMPS:EGK:1,2013-02-04T22:36:00Z,27.6010,-82.7510,17.44,1111122 
COMPS,ioos:station:USF.COMPS:EGK:1,2013-02-04T22:42:00Z,27.6010,-82.7510,17.33,1111122 
COMPS,ioos:station:USF.COMPS:EGK:1,2013-02-04T22:48:00Z,27.6010,-82.7510,17.19,1111122 
COMPS,ioos:station:USF.COMPS:EGK:1,2013-02-04T22:54:00Z,27.6010,-82.7510,16.89,1111122 
COMPS,ioos:station:USF.COMPS:EGK:1,2013-02-04T23:00:00Z,27.6010,-82.7510,16.9,1111122 
COMPS,ioos:station:USF.COMPS:EGK:1,2013-02-04T23:06:00Z,27.6010,-82.7510,16.53,1111122 
COMPS,ioos:station:USF.COMPS:EGK:1,2013-02-04T23:12:00Z,27.6010,-82.7510,16.38,1111122 
COMPS,ioos:station:USF.COMPS:EGK:1,2013-02-04T23:18:00Z,27.6010,-82.7510,16.27,1111122 
COMPS,ioos:station:USF.COMPS:EGK:1,2013-02-04T23:24:00Z,27.6010,-82.7510,16.26,1111122 
COMPS,ioos:station:USF.COMPS:EGK:1,2013-02-04T23:30:00Z,27.6010,-82.7510,16.1,1111122 
COMPS,ioos:station:USF.COMPS:EGK:1,2013-02-04T23:36:00Z,27.6010,-82.7510,16.0,1111122 
COMPS,ioos:station:USF.COMPS:EGK:1,2013-02-04T23:42:00Z,27.6010,-82.7510,16.13,1111122 
COMPS,ioos:station:USF.COMPS:EGK:1,2013-02-04T23:48:00Z,27.6010,-82.7510,16.16,1111122 
COMPS,ioos:station:USF.COMPS:EGK:1,2013-02-04T23:54:00Z,27.6010,-82.7510,16.03,1111122 
COMPS,ioos:station:USF.COMPS:EGK:1,2013-02-05T00:00:00Z,27.6010,-82.7510,16.0,1111122 
COMPS,ioos:station:USF.COMPS:EGK:1,2013-02-05T00:06:00Z,27.6010,-82.7510,16.44,1111122 
COMPS,ioos:station:USF.COMPS:EGK:1,2013-02-05T00:12:00Z,27.6010,-82.7510,16.62,1111122 
COMPS,ioos:station:USF.COMPS:EGK:1,2013-02-05T00:18:00Z,27.6010,-82.7510,16.6,1111122 
COMPS,ioos:station:USF.COMPS:EGK:1,2013-02-05T00:24:00Z,27.6010,-82.7510,16.38,1111122 
COMPS,ioos:station:USF.COMPS:EGK:1,2013-02-05T00:30:00Z,27.6010,-82.7510,16.21,1111122 
COMPS,ioos:station:USF.COMPS:EGK:1,2013-02-05T00:36:00Z,27.6010,-82.7510,16.19,1111122 
COMPS,ioos:station:USF.COMPS:EGK:1,2013-02-05T00:42:00Z,27.6010,-82.7510,16.11,1111122 
COMPS,ioos:station:USF.COMPS:EGK:1,2013-02-05T00:48:00Z,27.6010,-82.7510,16.17,1111122 
COMPS,ioos:station:USF.COMPS:EGK:1,2013-02-05T00:54:00Z,27.6010,-82.7510,16.13,1111122 
COMPS,ioos:station:USF.COMPS:EGK:1,2013-02-05T01:00:00Z,27.6010,-82.7510,16.1,1111122 
COMPS,ioos:station:USF.COMPS:EGK:1,2013-02-05T01:06:00Z,27.6010,-82.7510,16.52,1111122 
COMPS,ioos:station:USF.COMPS:EGK:1,2013-02-05T01:12:00Z,27.6010,-82.7510,16.12,1111122 
COMPS,ioos:station:USF.COMPS:EGK:1,2013-02-05T01:18:00Z,27.6010,-82.7510,15.93,1111122 
COMPS,ioos:station:USF.COMPS:EGK:1,2013-02-05T01:24:00Z,27.6010,-82.7510,16.22,1111122 
COMPS,ioos:station:USF.COMPS:EGK:1,2013-02-05T01:30:00Z,27.6010,-82.7510,16.41,1111122 
COMPS,ioos:station:USF.COMPS:EGK:1,2013-02-05T01:36:00Z,27.6010,-82.7510,16.33,1111122 
COMPS,ioos:station:USF.COMPS:EGK:1,2013-02-05T01:42:00Z,27.6010,-82.7510,16.35,1111122 
COMPS,ioos:station:USF.COMPS:EGK:1,2013-02-05T01:48:00Z,27.6010,-82.7510,16.57,1111122 
COMPS,ioos:station:USF.COMPS:EGK:1,2013-02-05T01:54:00Z,27.6010,-82.7510,16.46,1111122 
COMPS,ioos:station:USF.COMPS:EGK:1,2013-02-05T02:00:00Z,27.6010,-82.7510,16.61,1111122 
COMPS,ioos:station:USF.COMPS:EGK:1,2013-02-05T02:06:00Z,27.6010,-82.7510,16.48,1111122 
COMPS,ioos:station:USF.COMPS:EGK:1,2013-02-05T02:12:00Z,27.6010,-82.7510,16.59,1111122 
COMPS,ioos:station:USF.COMPS:EGK:1,2013-02-05T02:18:00Z,27.6010,-82.7510,16.61,1111122 
COMPS,ioos:station:USF.COMPS:EGK:1,2013-02-05T02:24:00Z,27.6010,-82.7510,16.66,1111122 
COMPS,ioos:station:USF.COMPS:EGK:1,2013-02-05T02:30:00Z,27.6010,-82.7510,16.43,1111122 
COMPS,ioos:station:USF.COMPS:EGK:1,2013-02-05T02:36:00Z,27.6010,-82.7510,16.52,1111122 
COMPS,ioos:station:USF.COMPS:EGK:1,2013-02-05T02:42:00Z,27.6010,-82.7510,16.58,1111122 
COMPS,ioos:station:USF.COMPS:EGK:1,2013-02-05T02:48:00Z,27.6010,-82.7510,16.67,1111122 
COMPS,ioos:station:USF.COMPS:EGK:1,2013-02-05T02:54:00Z,27.6010,-82.7510,16.58,1111122 
COMPS,ioos:station:USF.COMPS:EGK:1,2013-02-05T03:00:00Z,27.6010,-82.7510,16.6,1111122 
COMPS,ioos:station:USF.COMPS:EGK:1,2013-02-05T03:06:00Z,27.6010,-82.7510,16.25,1111122 
COMPS,ioos:station:USF.COMPS:EGK:1,2013-02-05T03:12:00Z,27.6010,-82.7510,16.29,1111122 
COMPS,ioos:station:USF.COMPS:EGK:1,2013-02-05T03:18:00Z,27.6010,-82.7510,16.25,1111122 
COMPS,ioos:station:USF.COMPS:EGK:1,2013-02-05T03:24:00Z,27.6010,-82.7510,16.19,1111122 
COMPS,ioos:station:USF.COMPS:EGK:1,2013-02-05T03:30:00Z,27.6010,-82.7510,16.18,1111122 
COMPS,ioos:station:USF.COMPS:EGK:1,2013-02-05T03:36:00Z,27.6010,-82.7510,16.22,1111122 
COMPS,ioos:station:USF.COMPS:EGK:1,2013-02-05T03:42:00Z,27.6010,-82.7510,16.1,1111122 
COMPS,ioos:station:USF.COMPS:EGK:1,2013-02-05T03:48:00Z,27.6010,-82.7510,15.77,1111122 
COMPS,ioos:station:USF.COMPS:EGK:1,2013-02-05T03:54:00Z,27.6010,-82.7510,15.65,1111122 
COMPS,ioos:station:USF.COMPS:EGK:1,2013-02-05T04:00:00Z,27.6010,-82.7510,15.7,1111122 
COMPS,ioos:station:USF.COMPS:EGK:1,2013-02-05T04:06:00Z,27.6010,-82.7510,15.55,1111122 
COMPS,ioos:station:USF.COMPS:EGK:1,2013-02-05T04:12:00Z,27.6010,-82.7510,15.41,1111122 
COMPS,ioos:station:USF.COMPS:EGK:1,2013-02-05T04:18:00Z,27.6010,-82.7510,15.38,1111122 
COMPS,ioos:station:USF.COMPS:EGK:1,2013-02-05T04:24:00Z,27.6010,-82.7510,15.38,1111122 
COMPS,ioos:station:USF.COMPS:EGK:1,2013-02-05T04:30:00Z,27.6010,-82.7510,15.54,1111122 
COMPS,ioos:station:USF.COMPS:EGK:1,2013-02-05T04:36:00Z,27.6010,-82.7510,15.47,1111122 
COMPS,ioos:station:USF.COMPS:EGK:1,2013-02-05T04:42:00Z,27.6010,-82.7510,15.38,1111122 
COMPS,ioos:station:USF.COMPS:EGK:1,2013-02-05T04:48:00Z,27.6010,-82.7510,15.48,1111122 
COMPS,ioos:station:USF.COMPS:EGK:1,2013-02-05T04:54:00Z,27.6010,-82.7510,15.6,1111122 
COMPS,ioos:station:USF.COMPS:EGK:1,2013-02-05T05:00:00Z,27.6010,-82.7510,15.6,1111122 
COMPS,ioos:station:USF.COMPS:EGK:1,2013-02-05T05:06:00Z,27.6010,-82.7510,15.52,1111122 
COMPS,ioos:station:USF.COMPS:EGK:1,2013-02-05T05:12:00Z,27.6010,-82.7510,15.56,1111122 
COMPS,ioos:station:USF.COMPS:EGK:1,2013-02-05T05:18:00Z,27.6010,-82.7510,15.57,1111122 
COMPS,ioos:station:USF.COMPS:EGK:1,2013-02-05T05:24:00Z,27.6010,-82.7510,15.63,1111122 
COMPS,ioos:station:USF.COMPS:EGK:1,2013-02-05T05:30:00Z,27.6010,-82.7510,15.51,1111122 
COMPS,ioos:station:USF.COMPS:EGK:1,2013-02-05T05:36:00Z,27.6010,-82.7510,15.52,1111122 
COMPS,ioos:station:USF.COMPS:EGK:1,2013-02-05T05:42:00Z,27.6010,-82.7510,15.57,1111122 
COMPS,ioos:station:USF.COMPS:EGK:1,2013-02-05T05:48:00Z,27.6010,-82.7510,15.71,1111122 
COMPS,ioos:station:USF.COMPS:EGK:1,2013-02-05T05:54:00Z,27.6010,-82.7510,15.59,1111122 
COMPS,ioos:station:USF.COMPS:EGK:1,2013-02-05T06:00:00Z,27.6010,-82.7510,15.6,1111122 
COMPS,ioos:station:USF.COMPS:EGK:1,2013-02-05T06:06:00Z,27.6010,-82.7510,15.5,1111122 
COMPS,ioos:station:USF.COMPS:EGK:1,2013-02-05T06:12:00Z,27.6010,-82.7510,15.58,1111122 
COMPS,ioos:station:USF.COMPS:EGK:1,2013-02-05T06:18:00Z,27.6010,-82.7510,15.63,1111122 
COMPS,ioos:station:USF.COMPS:EGK:1,2013-02-05T06:24:00Z,27.6010,-82.7510,15.64,1111122 
COMPS,ioos:station:USF.COMPS:EGK:1,2013-02-05T06:30:00Z,27.6010,-82.7510,15.64,1111122 
COMPS,ioos:station:USF.COMPS:EGK:1,2013-02-05T06:36:00Z,27.6010,-82.7510,15.67,1111122 
COMPS,ioos:station:USF.COMPS:EGK:1,2013-02-05T06:42:00Z,27.6010,-82.7510,15.75,1111122 
COMPS,ioos:station:USF.COMPS:EGK:1,2013-02-05T06:48:00Z,27.6010,-82.7510,15.67,1111122 
COMPS,ioos:station:USF.COMPS:EGK:1,2013-02-05T06:54:00Z,27.6010,-82.7510,15.79,1111122 
COMPS,ioos:station:USF.COMPS:EGK:1,2013-02-05T07:00:00Z,27.6010,-82.7510,15.8,1111122 
COMPS,ioos:station:USF.COMPS:EGK:1,2013-02-05T07:06:00Z,27.6010,-82.7510,16.04,1111122 
COMPS,ioos:station:USF.COMPS:EGK:1,2013-02-05T07:12:00Z,27.6010,-82.7510,15.75,1111122 
COMPS,ioos:station:USF.COMPS:EGK:1,2013-02-05T07:18:00Z,27.6010,-82.7510,15.6,1111122 
COMPS,ioos:station:USF.COMPS:EGK:1,2013-02-05T07:24:00Z,27.6010,-82.7510,15.61,1111122 
COMPS,ioos:station:USF.COMPS:EGK:1,2013-02-05T07:30:00Z,27.6010,-82.7510,15.74,1111122 
COMPS,ioos:station:USF.COMPS:EGK:1,2013-02-05T07:36:00Z,27.6010,-82.7510,15.7,1111122 
COMPS,ioos:station:USF.COMPS:EGK:1,2013-02-05T07:42:00Z,27.6010,-82.7510,15.64,1111122 
COMPS,ioos:station:USF.COMPS:EGK:1,2013-02-05T07:48:00Z,27.6010,-82.7510,15.65,1111122 
COMPS,ioos:station:USF.COMPS:EGK:1,2013-02-05T07:54:00Z,27.6010,-82.7510,15.75,1111122 
COMPS,ioos:station:USF.COMPS:EGK:1,2013-02-05T08:00:00Z,27.6010,-82.7510,15.8,1111122 
COMPS,ioos:station:USF.COMPS:EGK:1,2013-02-05T08:06:00Z,27.6010,-82.7510,15.64,1111122 
COMPS,ioos:station:USF.COMPS:EGK:1,2013-02-05T08:12:00Z,27.6010,-82.7510,15.72,1111122 
COMPS,ioos:station:USF.COMPS:EGK:1,2013-02-05T08:18:00Z,27.6010,-82.7510,15.66,1111122 
COMPS,ioos:station:USF.COMPS:EGK:1,2013-02-05T08:24:00Z,27.6010,-82.7510,15.74,1111122 
COMPS,ioos:station:USF.COMPS:EGK:1,2013-02-05T08:30:00Z,27.6010,-82.7510,15.49,1111122 
COMPS,ioos:station:USF.COMPS:EGK:1,2013-02-05T08:36:00Z,27.6010,-82.7510,15.37,1111122 
COMPS,ioos:station:USF.COMPS:EGK:1,2013-02-05T08:42:00Z,27.6010,-82.7510,15.22,1111122 
COMPS,ioos:station:USF.COMPS:EGK:1,2013-02-05T08:48:00Z,27.6010,-82.7510,15.27,1111122 
COMPS,ioos:station:USF.COMPS:EGK:1,2013-02-05T08:54:00Z,27.6010,-82.7510,15.13,1111122 
COMPS,ioos:station:USF.COMPS:EGK:1,2013-02-05T09:00:00Z,27.6010,-82.7510,15.1,1111122 
COMPS,ioos:station:USF.COMPS:EGK:1,2013-02-05T09:06:00Z,27.6010,-82.7510,15.08,1111122 
COMPS,ioos:station:USF.COMPS:EGK:1,2013-02-05T09:12:00Z,27.6010,-82.7510,15.07,1111122 
COMPS,ioos:station:USF.COMPS:EGK:1,2013-02-05T09:18:00Z,27.6010,-82.7510,15.23,1111122 
COMPS,ioos:station:USF.COMPS:EGK:1,2013-02-05T09:24:00Z,27.6010,-82.7510,15.34,1111122 
COMPS,ioos:station:USF.COMPS:EGK:1,2013-02-05T09:30:00Z,27.6010,-82.7510,15.46,1111122 
COMPS,ioos:station:USF.COMPS:EGK:1,2013-02-05T09:36:00Z,27.6010,-82.7510,15.51,1111122 
COMPS,ioos:station:USF.COMPS:EGK:1,2013-02-05T09:42:00Z,27.6010,-82.7510,15.68,1111122 
COMPS,ioos:station:USF.COMPS:EGK:1,2013-02-05T09:48:00Z,27.6010,-82.7510,15.63,1111122 
COMPS,ioos:station:USF.COMPS:EGK:1,2013-02-05T09:54:00Z,27.6010,-82.7510,15.62,1111122 
COMPS,ioos:station:USF.COMPS:EGK:1,2013-02-05T10:00:00Z,27.6010,-82.7510,15.6,1111122 
COMPS,ioos:station:USF.COMPS:EGK:1,2013-02-05T10:06:00Z,27.6010,-82.7510,15.64,1111122 
COMPS,ioos:station:USF.COMPS:EGK:1,2013-02-05T10:12:00Z,27.6010,-82.7510,15.55,1111122 
COMPS,ioos:station:USF.COMPS:EGK:1,2013-02-05T10:18:00Z,27.6010,-82.7510,15.47,1111122 
COMPS,ioos:station:USF.COMPS:EGK:1,2013-02-05T10:24:00Z,27.6010,-82.7510,15.45,1111122 
COMPS,ioos:station:USF.COMPS:EGK:1,2013-02-05T10:30:00Z,27.6010,-82.7510,15.59,1111122 
COMPS,ioos:station:USF.COMPS:EGK:1,2013-02-05T10:36:00Z,27.6010,-82.7510,15.58,1111122 
COMPS,ioos:station:USF.COMPS:EGK:1,2013-02-05T10:42:00Z,27.6010,-82.7510,15.55,1111122 
COMPS,ioos:station:USF.COMPS:EGK:1,2013-02-05T10:48:00Z,27.6010,-82.7510,15.62,1111122 
COMPS,ioos:station:USF.COMPS:EGK:1,2013-02-05T10:54:00Z,27.6010,-82.7510,15.68,1111122 
COMPS,ioos:station:USF.COMPS:EGK:1,2013-02-05T11:00:00Z,27.6010,-82.7510,15.7,1111122 
COMPS,ioos:station:USF.COMPS:EGK:1,2013-02-05T11:06:00Z,27.6010,-82.7510,15.73,1111122 
COMPS,ioos:station:USF.COMPS:EGK:1,2013-02-05T11:12:00Z,27.6010,-82.7510,15.46,1111122 
COMPS,ioos:station:USF.COMPS:EGK:1,2013-02-05T11:18:00Z,27.6010,-82.7510,15.2,1111122 
COMPS,ioos:station:USF.COMPS:EGK:1,2013-02-05T11:24:00Z,27.6010,-82.7510,15.33,1111122 
COMPS,ioos:station:USF.COMPS:EGK:1,2013-02-05T11:30:00Z,27.6010,-82.7510,15.47,1111122 
COMPS,ioos:station:USF.COMPS:EGK:1,2013-02-05T11:36:00Z,27.6010,-82.7510,15.71,1111122 
COMPS,ioos:station:USF.COMPS:EGK:1,2013-02-05T11:42:00Z,27.6010,-82.7510,15.57,1111122 
COMPS,ioos:station:USF.COMPS:EGK:1,2013-02-05T11:48:00Z,27.6010,-82.7510,15.59,1111122 
COMPS,ioos:station:USF.COMPS:EGK:1,2013-02-05T11:54:00Z,27.6010,-82.7510,15.56,1111122 
COMPS,ioos:station:USF.COMPS:EGK:1,2013-02-05T12:00:00Z,27.6010,-82.7510,15.6,1111122 
COMPS,ioos:station:USF.COMPS:EGK:1,2013-02-05T12:06:00Z,27.6010,-82.7510,15.38,1111122 
COMPS,ioos:station:USF.COMPS:EGK:1,2013-02-05T12:12:00Z,27.6010,-82.7510,15.45,1111122 
COMPS,ioos:station:USF.COMPS:EGK:1,2013-02-05T12:18:00Z,27.6010,-82.7510,15.34,1111122 
COMPS,ioos:station:USF.COMPS:EGK:1,2013-02-05T12:24:00Z,27.6010,-82.7510,15.19,1111122 
COMPS,ioos:station:USF.COMPS:EGK:1,2013-02-05T12:30:00Z,27.6010,-82.7510,15.11,1111122 
COMPS,ioos:station:USF.COMPS:EGK:1,2013-02-05T12:36:00Z,27.6010,-82.7510,14.98,1111122 
COMPS,ioos:station:USF.COMPS:EGK:1,2013-02-05T12:42:00Z,27.6010,-82.7510,15.09,1111122 
COMPS,ioos:station:USF.COMPS:EGK:1,2013-02-05T12:48:00Z,27.6010,-82.7510,14.87,1111122 
COMPS,ioos:station:USF.COMPS:EGK:1,2013-02-05T12:54:00Z,27.6010,-82.7510,14.74,1111122 
COMPS,ioos:station:USF.COMPS:EGK:1,2013-02-05T13:00:00Z,27.6010,-82.7510,14.7,1111122 
COMPS,ioos:station:USF.COMPS:EGK:1,2013-02-05T13:06:00Z,27.6010,-82.7510,14.76,1111122 
COMPS,ioos:station:USF.COMPS:EGK:1,2013-02-05T13:12:00Z,27.6010,-82.7510,14.67,1111122 
COMPS,ioos:station:USF.COMPS:EGK:1,2013-02-05T13:18:00Z,27.6010,-82.7510,14.65,1111122 
COMPS,ioos:station:USF.COMPS:EGK:1,2013-02-05T13:24:00Z,27.6010,-82.7510,14.76,1111122 
COMPS,ioos:station:USF.COMPS:EGK:1,2013-02-05T13:30:00Z,27.6010,-82.7510,14.97,1111122 
COMPS,ioos:station:USF.COMPS:EGK:1,2013-02-05T13:36:00Z,27.6010,-82.7510,15.05,1111122 
COMPS,ioos:station:USF.COMPS:EGK:1,2013-02-05T13:42:00Z,27.6010,-82.7510,15.02,1111122 
COMPS,ioos:station:USF.COMPS:EGK:1,2013-02-05T13:48:00Z,27.6010,-82.7510,15.1,1111122 
COMPS,ioos:station:USF.COMPS:EGK:1,2013-02-05T13:54:00Z,27.6010,-82.7510,15.0,1111122 
COMPS,ioos:station:USF.COMPS:EGK:1,2013-02-05T14:00:00Z,27.6010,-82.7510,15.0,1111122 
COMPS,ioos:station:USF.COMPS:EGK:1,2013-02-05T14:06:00Z,27.6010,-82.7510,15.0,1111122 
COMPS,ioos:station:USF.COMPS:EGK:1,2013-02-05T14:12:00Z,27.6010,-82.7510,15.03,1111122 
COMPS,ioos:station:USF.COMPS:EGK:1,2013-02-05T14:18:00Z,27.6010,-82.7510,15.09,1111122 
COMPS,ioos:station:USF.COMPS:EGK:1,2013-02-05T14:24:00Z,27.6010,-82.7510,15.09,1111122 
COMPS,ioos:station:USF.COMPS:EGK:1,2013-02-05T14:30:00Z,27.6010,-82.7510,15.15,1111122 
COMPS,ioos:station:USF.COMPS:EGK:1,2013-02-05T14:36:00Z,27.6010,-82.7510,15.31,1111122 
COMPS,ioos:station:USF.COMPS:EGK:1,2013-02-05T14:42:00Z,27.6010,-82.7510,15.39,1111122 
COMPS,ioos:station:USF.COMPS:EGK:1,2013-02-05T14:48:00Z,27.6010,-82.7510,15.61,1111122 
COMPS,ioos:station:USF.COMPS:EGK:1,2013-02-05T14:54:00Z,27.6010,-82.7510,15.53,1111122 
COMPS,ioos:station:USF.COMPS:EGK:1,2013-02-05T15:00:00Z,27.6010,-82.7510,15.5,1111122 
COMPS,ioos:station:USF.COMPS:EGK:1,2013-02-05T15:06:00Z,27.6010,-82.7510,15.42,1111122 
COMPS,ioos:station:USF.COMPS:EGK:1,2013-02-05T15:12:00Z,27.6010,-82.7510,15.4,1111122 
COMPS,ioos:station:USF.COMPS:EGK:1,2013-02-05T15:18:00Z,27.6010,-82.7510,15.55,1111122 
COMPS,ioos:station:USF.COMPS:EGK:1,2013-02-05T15:24:00Z,27.6010,-82.7510,15.5,1111122 
COMPS,ioos:station:USF.COMPS:EGK:1,2013-02-05T15:30:00Z,27.6010,-82.7510,15.64,1111122 
COMPS,ioos:station:USF.COMPS:EGK:1,2013-02-05T15:36:00Z,27.6010,-82.7510,15.71,1111122 
COMPS,ioos:station:USF.COMPS:EGK:1,2013-02-05T15:42:00Z,27.6010,-82.7510,15.94,1111122 
COMPS,ioos:station:USF.COMPS:EGK:1,2013-02-05T15:48:00Z,27.6010,-82.7510,15.98,1111122 
COMPS,ioos:station:USF.COMPS:EGK:1,2013-02-05T15:54:00Z,27.6010,-82.7510,16.18,1111122 
COMPS,ioos:station:USF.COMPS:EGK:1,2013-02-05T16:00:00Z,27.6010,-82.7510,16.2,1111122 
COMPS,ioos:station:USF.COMPS:EGK:1,2013-02-05T16:06:00Z,27.6010,-82.7510,16.62,1111122 
COMPS,ioos:station:USF.COMPS:EGK:1,2013-02-05T16:12:00Z,27.6010,-82.7510,16.64,1111122 
COMPS,ioos:station:USF.COMPS:EGK:1,2013-02-05T16:18:00Z,27.6010,-82.7510,16.68,1111122 
COMPS,ioos:station:USF.COMPS:EGK:1,2013-02-05T16:24:00Z,27.6010,-82.7510,16.71,1111122 
COMPS,ioos:station:USF.COMPS:EGK:1,2013-02-05T16:30:00Z,27.6010,-82.7510,17.07,1111122 
COMPS,ioos:station:USF.COMPS:EGK:1,2013-02-05T16:36:00Z,27.6010,-82.7510,17.22,1111122 
COMPS,ioos:station:USF.COMPS:EGK:1,2013-02-05T16:42:00Z,27.6010,-82.7510,17.32,1111122 
COMPS,ioos:station:USF.COMPS:EGK:1,2013-02-05T16:48:00Z,27.6010,-82.7510,17.65,1111122 
COMPS,ioos:station:USF.COMPS:EGK:1,2013-02-05T16:54:00Z,27.6010,-82.7510,17.77,1111122 
COMPS,ioos:station:USF.COMPS:EGK:1,2013-02-05T17:00:00Z,27.6010,-82.7510,17.8,1111122 
COMPS,ioos:station:USF.COMPS:EGK:1,2013-02-05T17:06:00Z,27.6010,-82.7510,17.83,1111122 
COMPS,ioos:station:USF.COMPS:EGK:1,2013-02-05T17:12:00Z,27.6010,-82.7510,17.94,1111122 
COMPS,ioos:station:USF.COMPS:EGK:1,2013-02-05T17:18:00Z,27.6010,-82.7510,18.09,1111122 
COMPS,ioos:station:USF.COMPS:EGK:1,2013-02-05T17:24:00Z,27.6010,-82.7510,18.17,1111122 
COMPS,ioos:station:USF.COMPS:EGK:1,2013-02-05T17:30:00Z,27.6010,-82.7510,18.06,1111122 
COMPS,ioos:station:USF.COMPS:EGK:1,2013-02-05T17:36:00Z,27.6010,-82.7510,18.06,1111122 
COMPS,ioos:station:USF.COMPS:EGK:1,2013-02-05T17:42:00Z,27.6010,-82.7510,18.08,1111122 
COMPS,ioos:station:USF.COMPS:EGK:1,2013-02-05T17:48:00Z,27.6010,-82.7510,18.06,1111122 
COMPS,ioos:station:USF.COMPS:EGK:1,2013-02-05T17:54:00Z,27.6010,-82.7510,18.04,1111122 
COMPS,ioos:station:USF.COMPS:EGK:1,2013-02-05T18:00:00Z,27.6010,-82.7510,18.0,1111122 
COMPS,ioos:station:USF.COMPS:EGK:1,2013-02-05T18:06:00Z,27.6010,-82.7510,18.18,1111122 
COMPS,ioos:station:USF.COMPS:EGK:1,2013-02-05T18:12:00Z,27.6010,-82.7510,18.28,1111122 
COMPS,ioos:station:USF.COMPS:EGK:1,2013-02-05T18:18:00Z,27.6010,-82.7510,18.46,1111122 
COMPS,ioos:station:USF.COMPS:EGK:1,2013-02-05T18:24:00Z,27.6010,-82.7510,18.42,1111122 
COMPS,ioos:station:USF.COMPS:EGK:1,2013-02-05T18:30:00Z,27.6010,-82.7510,18.53,1111122 
COMPS,ioos:station:USF.COMPS:EGK:1,2013-02-05T18:36:00Z,27.6010,-82.7510,18.48,1111122 
COMPS,ioos:station:USF.COMPS:EGK:1,2013-02-05T18:42:00Z,27.6010,-82.7510,18.93,1111122 
COMPS,ioos:station:USF.COMPS:EGK:1,2013-02-05T18:48:00Z,27.6010,-82.7510,18.89,1111122 
COMPS,ioos:station:USF.COMPS:EGK:1,2013-02-05T18:54:00Z,27.6010,-82.7510,18.95,1111122 
COMPS,ioos:station:USF.COMPS:EGK:1,2013-02-05T19:00:00Z,27.6010,-82.7510,19.0,1111122 
COMPS,ioos:station:USF.COMPS:EGK:1,2013-02-05T19:06:00Z,27.6010,-82.7510,19.18,1111122 
COMPS,ioos:station:USF.COMPS:EGK:1,2013-02-05T19:12:00Z,27.6010,-82.7510,19.17,1111122 
COMPS,ioos:station:USF.COMPS:EGK:1,2013-02-05T19:18:00Z,27.6010,-82.7510,19.19,1111122 
COMPS,ioos:station:USF.COMPS:EGK:1,2013-02-05T19:24:00Z,27.6010,-82.7510,19.12,1111122 
COMPS,ioos:station:USF.COMPS:EGK:1,2013-02-05T19:30:00Z,27.6010,-82.7510,19.44,1111122 
COMPS,ioos:station:USF.COMPS:EGK:1,2013-02-05T19:36:00Z,27.6010,-82.7510,19.57,1111122 
COMPS,ioos:station:USF.COMPS:EGK:1,2013-02-05T19:42:00Z,27.6010,-82.7510,19.54,1111122 
COMPS,ioos:station:USF.COMPS:EGK:1,2013-02-05T19:48:00Z,27.6010,-82.7510,19.7,1111122 
COMPS,ioos:station:USF.COMPS:EGK:1,2013-02-05T19:54:00Z,27.6010,-82.7510,19.55,1111122 
COMPS,ioos:station:USF.COMPS:EGK:1,2013-02-05T20:00:00Z,27.6010,-82.7510,19.6,1111122 
COMPS,ioos:station:USF.COMPS:EGK:1,2013-02-05T20:06:00Z,27.6010,-82.7510,19.59,1111122 